Location: Unspecified
(41.8160°N, 0.0000°E)
Time: 07:19:25
(UTC+00:00)

OTV 5 (USA 277) - Visible Passes

Search period start: 16 October 2019 00:00
Search period end: 26 October 2019 00:00
Orbit: 310 x 324 km, 54.5° (Epoch: 08 October)

Date Brightness Start Highest point End Pass type
(mag) Time Alt. Az. Time Alt. Az. Time Alt. Az.
16 Oct ? 05:39:28 10° NNW 05:41:57 29° NNE 05:44:25 10° E visible
17 Oct ? 04:21:38 12° NNE 04:21:51 12° NNE 04:23:06 10° NE visible
18 Oct ? 04:36:01 19° N 04:36:42 21° NNE 04:38:52 10° E visible
19 Oct ? 04:50:31 31° NNW 04:51:24 45° NE 04:54:02 10° ESE visible
20 Oct ? 05:05:08 37° WNW 05:05:58 58° SW 05:08:38 10° SE visible
21 Oct ? 05:19:54 19° WSW 05:20:22 20° SW 05:22:26 10° S visible
